Weather History for Palma de Mallorca, Spain

Change the Weather History Date:

Tuesday, May 13, 2014

  Actual Average Record
Temperature  
Mean Temperature 62 °F -  
Max Temperature 68 °F 76 °F 82 °F (2000)
Min Temperature 56 °F 56 °F 47 °F (2013)
Degree Days  
Heating Degree Days 3    
Growing Degree Days 12 (Base 50)    
Moisture  
Dew Point 50 °F    
Average Humidity 61    
Maximum Humidity 82    
Minimum Humidity 39    
Precipitation  
Precipitation 0.00 in 0.03 in - ()
Sea Level Pressure  
Sea Level Pressure 30.11 in    
Wind  
Wind Speed 9 mph ()    
Max Wind Speed 21 mph    
Max Gust Speed -    
Visibility 8.1 miles    
Events      
Averages and records for this station are not official NWS values.
T = Trace of Precipitation, MM = Missing Value Source: Averaged Metar Reports

Daily Weather History Graph

Daily Weather History Graph

Search for Another Location

Airport:

Trip Planner

Search our weather history database for the weather conditions in past years. The results will help you decide how hot, cold, wet, or windy it might be!

Date:

Astronomy

May. 13, 2014 Rise Set
Actual Time 6:37 AM CEST 8:54 PM CEST
Civil Twilight 6:06 AM CEST 9:24 PM CEST
Nautical Twilight 5:29 AM CEST 10:01 PM CEST
Astronomical Twilight 4:48 AM CEST 10:42 PM CEST
Moon 7:39 PM CEST (5/13) 5:43 AM CEST (5/13)
Length of Visible Light 15h 17m
Length of Day
14h 17m
Waxing Gibbous, 98% of the Moon is Illuminated
May 13
Waxing Gibbous
May 14
Full
May 21
Last Quarter
May 28
New
Jun 5
First Quarter

Hourly Weather History & Observations

Time (CEST) Temp. Dew Point Humidity Pressure Visibility Wind Dir Wind Speed Gust Speed Precip Events Conditions
12:00 AM 63 °F 51 °F 57% 30.04 in - ENE 9.2 mph - -  
12:00 AM 62.6 °F 51.8 °F 68% 30.04 in - NE 8.1 mph - N/A   Clear
12:30 AM 60.8 °F 51.8 °F 72% 30.04 in - NE 6.9 mph - N/A   Clear
1:00 AM 60 °F 51 °F 63% 30.04 in - NE 4.6 mph - -  
1:00 AM 60.8 °F 50.0 °F 68% 30.04 in - NE 5.8 mph - N/A   Clear
1:30 AM 59.0 °F 50.0 °F 72% 30.04 in - NE 4.6 mph - N/A   Clear
2:00 AM 58 °F 49 °F 63% 30.04 in 16 mi Calm Calm - -   Clear
2:00 AM 59.0 °F 50.0 °F 72% 30.04 in - NE 2.3 mph - N/A   Clear
2:30 AM 57.2 °F 48.2 °F 72% 30.04 in - ENE 6.9 mph - N/A   Clear
3:00 AM 57 °F 49 °F 67% 30.03 in - ENE 9.2 mph - -  
3:00 AM 57.2 °F 50.0 °F 77% 30.01 in - ENE 8.1 mph - N/A   Clear
4:00 AM 58 °F 53 °F 76% 30.03 in - ENE 8.1 mph - -  
4:00 AM 59.0 °F 51.8 °F 77% 30.01 in 6.2 mi ENE 10.4 mph - N/A   Partly Cloudy
4:30 AM 59.0 °F 51.8 °F 77% 30.01 in 6.2 mi ENE 4.6 mph - N/A   Partly Cloudy
5:00 AM 58 °F 53 °F 77% 30.02 in 16 mi East 6.9 mph - -   Scattered Clouds
5:00 AM 59.0 °F 51.8 °F 77% 30.01 in 6.2 mi ENE 5.8 mph - N/A   Partly Cloudy
5:30 AM 59.0 °F 53.6 °F 82% 30.01 in 6.2 mi ENE 8.1 mph - N/A   Partly Cloudy
6:00 AM 59 °F 53 °F 76% 30.01 in - NNE 6.9 mph - -  
6:00 AM 59.0 °F 53.6 °F 82% 30.01 in - ENE 4.6 mph - N/A   Clear
6:30 AM 59.0 °F 51.8 °F 77% 30.01 in - ENE 5.8 mph - N/A   Clear
7:00 AM 60 °F 52 °F 67% 30.04 in - NE 9.2 mph - -  
7:00 AM 59.0 °F 51.8 °F 77% 30.04 in 6.2 mi ENE 11.5 mph - N/A   Partly Cloudy
7:30 AM 60.8 °F 51.8 °F 72% 30.04 in 6.2 mi ENE 11.5 mph - N/A   Partly Cloudy
8:00 AM 62 °F 51 °F 59% 30.06 in 16 mi ENE 12.7 mph - -   Scattered Clouds
8:00 AM 60.8 °F 51.8 °F 72% 30.04 in 6.2 mi ENE 11.5 mph - N/A   Scattered Clouds
8:30 AM 62.6 °F 51.8 °F 68% 30.06 in 6.2 mi ENE 12.7 mph - N/A   Scattered Clouds
9:00 AM 65 °F 52 °F 53% 30.07 in - ENE 16.1 mph - -  
9:00 AM 64.4 °F 51.8 °F 64% 30.06 in 6.2 mi ENE 15.0 mph - N/A   Partly Cloudy
9:30 AM 64.4 °F 51.8 °F 64% 30.06 in 6.2 mi ENE 17.3 mph - N/A   Partly Cloudy
10:00 AM 66 °F 50 °F 45% 30.09 in - ENE 16.1 mph - -  
10:00 AM 66.2 °F 50.0 °F 56% 30.06 in 6.2 mi ENE 16.1 mph - N/A   Partly Cloudy
10:30 AM 66.2 °F 50.0 °F 56% 30.09 in 6.2 mi ENE 18.4 mph - N/A   Mostly Cloudy
11:00 AM 66 °F 50 °F 46% 30.12 in 19 mi ENE 20.7 mph - -   Scattered Clouds
11:00 AM 66.2 °F 50.0 °F 56% 30.09 in 6.2 mi ENE 18.4 mph - N/A   Mostly Cloudy
11:30 AM 66.2 °F 48.2 °F 52% 30.12 in 6.2 mi ENE 18.4 mph - N/A   Mostly Cloudy
12:00 PM 66 °F 49 °F 43% 30.13 in - ENE 20.7 mph - -  
12:00 PM 66.2 °F 50.0 °F 56% 30.12 in 6.2 mi ENE 18.4 mph - N/A   Mostly Cloudy
12:30 PM 64.4 °F 50.0 °F 59% 30.12 in 6.2 mi ENE 18.4 mph - N/A   Mostly Cloudy
1:00 PM 65 °F 47 °F 42% 30.15 in - ENE 20.7 mph - -  
1:00 PM 64.4 °F 48.2 °F 56% 30.15 in 6.2 mi ENE 19.6 mph - N/A   Mostly Cloudy
1:30 PM 64.4 °F 46.4 °F 52% 30.15 in 6.2 mi ENE 17.3 mph - N/A   Mostly Cloudy
2:00 PM 65 °F 47 °F 42% 30.16 in 16 mi ENE 17.3 mph - -   Scattered Clouds
2:00 PM 64.4 °F 48.2 °F 56% 30.15 in 6.2 mi ENE 17.3 mph - N/A   Mostly Cloudy
3:00 PM 65 °F 48 °F 43% 30.17 in - ENE 15.0 mph - -  
3:00 PM 64.4 °F 48.2 °F 56% 30.15 in 6.2 mi ENE 13.8 mph - N/A   Mostly Cloudy
3:30 PM 64.4 °F 48.2 °F 56% 30.15 in 6.2 mi ENE 15.0 mph - N/A   Mostly Cloudy
4:00 PM 66 °F 48 °F 41% 30.18 in - ENE 13.8 mph - -  
5:00 PM 66 °F 48 °F 41% 30.17 in 16 mi East 9.2 mph - -   Scattered Clouds
6:00 PM 68 °F 49 °F 39% 30.18 in - NE 5.8 mph - -  
6:00 PM 68.0 °F 48.2 °F 49% 30.15 in 6.2 mi ENE 5.8 mph - N/A   Partly Cloudy
6:30 PM 66.2 °F 48.2 °F 52% 30.18 in 6.2 mi East 9.2 mph - N/A   Partly Cloudy
7:00 PM 67 °F 48 °F 39% 30.18 in - ENE 5.8 mph - -  
7:30 PM 66.2 °F 48.2 °F 52% 30.18 in 6.2 mi East 8.1 mph - N/A   Partly Cloudy
8:00 PM 66 °F 48 °F 41% 30.19 in 16 mi East 5.8 mph - -   Scattered Clouds
8:00 PM 66.2 °F 48.2 °F 52% 30.18 in 6.2 mi ENE 4.6 mph - N/A   Partly Cloudy
8:30 PM 64.4 °F 48.2 °F 56% 30.18 in 6.2 mi SW 3.5 mph - N/A   Partly Cloudy
9:00 PM 64 °F 49 °F 48% 30.21 in - WNW 1.2 mph - -  
9:00 PM 64.4 °F 50.0 °F 59% 30.18 in 6.2 mi Variable 1.2 mph - N/A   Partly Cloudy
9:30 PM 62.6 °F 48.2 °F 59% 30.21 in 6.2 mi ENE 8.1 mph - N/A   Partly Cloudy
10:00 PM 60 °F 49 °F 56% 30.24 in - ENE 9.2 mph - -  
10:00 PM 60.8 °F 48.2 °F 63% 30.21 in 6.2 mi NE 9.2 mph - N/A   Scattered Clouds
10:30 PM 59.0 °F 48.2 °F 67% 30.24 in 6.2 mi Variable 2.3 mph - N/A   Scattered Clouds
11:00 PM 57 °F 48 °F 64% 30.27 in 12 mi East 4.6 mph - -   Scattered Clouds
11:00 PM 57.2 °F 48.2 °F 72% 30.24 in 6.2 mi ENE 3.5 mph - N/A   Partly Cloudy
11:30 PM 57.2 °F 48.2 °F 72% 30.27 in 6.2 mi Calm Calm - N/A   Partly Cloudy